Flag for Italy Weather past 2 weeks in Palermo, Italy

Now
84 °F

Passing clouds.


Feels Like: 90 °F
Forecast: 71 / 84 °F
Wind: 8 mph from North

Location: Palermo / Punta Raisi

Current Time: Aug 29, 2014 at 12:32:23 PM

Latest Report: Aug 29, 2014 at 11:50 AM


Visibility: N/A

Pressure: 30.01 "Hg

Humidity: 66%

Dew point: 72 °F

Location of PalermoLocation

Historic Weather in Palermo — Graph

°F

Palermo temperature yesterday

Maximum temperature yesterday: 86 °F (at 12:50 PM)
Minimum temperature yesterday: 72 °F (at 6:50 AM)
Average temperature yesterday: 80 °F

Past Weeks' High & Low Weather Summary

 TemperatureHumidityPressure
High91 °F (Aug 19, 3:50 PM)94% (Aug 21, 4:20 AM)30.07 "Hg (Aug 21, 4:20 AM)
Low68 °F (Aug 26, 6:50 AM)28% (Aug 19, 9:50 PM)29.89 "Hg (Aug 19, 4:20 PM)
Average79 °F69%29.99 "Hg
* Reported Aug 14 11:20 AM — Aug 29 11:20 AM, Palermo, Weather by CustomWeather, © 2014

Note: Actual official high and low records may vary slightly from our data, if they occured in-between our weather recording intervals... More about our weather records

Advertising

Palermo weather history for previous 24 hours

 ConditionsComfort  
Time TempWeatherWind HumidityBarometerVisibility
11:20 AM
Aug 29
82 °FPassing clouds.8 mph70%30.01 "HgN/A
10:50 AM82 °FPassing clouds.8 mph74%30.01 "HgN/A
10:20 AM82 °FPassing clouds.9 mph70%30.01 "HgN/A
9:50 AM81 °FPassing clouds.9 mph79%30.01 "HgN/A
9:20 AM81 °FPassing clouds.10 mph74%29.98 "HgN/A
8:50 AM81 °FPassing clouds.12 mph74%29.98 "HgN/A
8:20 AM79 °FPassing clouds.10 mph79%29.98 "HgN/A
7:50 AM79 °FPassing clouds.12 mph79%29.98 "HgN/A
7:20 AM79 °FPassing clouds.12 mph79%29.98 "HgN/A
6:50 AM77 °FPassing clouds.12 mph83%29.98 "HgN/A
6:20 AM77 °FPassing clouds.10 mph83%29.95 "HgN/A
5:50 AM77 °FClear.7 mph83%29.95 "Hg10 mi
5:20 AM77 °FClear.7 mph89%29.95 "Hg10 mi
4:50 AM75 °FClear.6 mph83%29.95 "Hg10 mi
4:20 AM77 °FClear.7 mph83%29.95 "Hg10 mi
3:50 AM77 °FClear.7 mph83%29.95 "Hg10 mi
3:20 AM77 °FClear.7 mph83%29.95 "Hg10 mi
2:50 AM77 °FClear.8 mph79%29.95 "Hg10 mi
2:20 AM77 °FClear.8 mph83%29.95 "Hg10 mi
1:50 AM79 °FClear.10 mph84%29.95 "Hg10 mi
1:20 AM79 °FClear.12 mph84%29.95 "Hg10 mi
12:50 AM79 °FClear.12 mph84%29.95 "Hg10 mi
12:20 AM79 °FClear.13 mph79%29.95 "Hg10 mi
11:50 PM
Aug 28
79 °FClear.10 mph79%29.95 "Hg10 mi
11:20 PM79 °FClear.12 mph79%29.95 "Hg10 mi
10:50 PM81 °FClear.14 mph74%29.95 "Hg10 mi
10:20 PM81 °FClear.13 mph70%29.95 "Hg10 mi
9:50 PM81 °FClear.14 mph74%29.95 "Hg10 mi
9:20 PM81 °FClear.14 mph74%29.95 "Hg10 mi
8:50 PM81 °FClear.15 mph79%29.95 "Hg10 mi
8:20 PM81 °FSunny.15 mph79%29.95 "Hg10 mi
7:50 PM81 °FSunny.16 mph79%29.92 "Hg10 mi
7:20 PM82 °FSunny.14 mph74%29.95 "Hg10 mi
6:50 PM82 °FSunny.15 mph74%29.92 "Hg10 mi
6:20 PM82 °FSunny.14 mph74%29.92 "Hg10 mi
5:50 PM82 °FSunny.14 mph74%29.92 "Hg10 mi
5:20 PM84 °FSunny.15 mph70%29.92 "Hg10 mi
4:50 PM84 °FSunny.16 mph66%29.92 "Hg10 mi
4:20 PM84 °FSunny.16 mph66%29.92 "Hg10 mi
3:50 PM84 °FSunny.15 mph66%29.92 "Hg10 mi
3:20 PM84 °FSunny.13 mph70%29.92 "Hg10 mi
2:50 PM84 °FSunny.13 mph70%29.92 "Hg10 mi
2:20 PM84 °FSunny.15 mph66%29.92 "Hg10 mi
1:50 PM84 °FSunny.13 mph66%29.92 "Hg10 mi
1:20 PM84 °FSunny.10 mph66%29.92 "Hg10 mi
12:50 PM86 °FSunny.8 mph62%29.95 "Hg10 mi
12:20 PM84 °FSunny.8 mph66%29.95 "Hg10 mi
Weather by CustomWeather, © 2014

See weather overviewHow to use our weather pages